Time,TemperatureF,DewpointF,PressureIn,WindDirection,WindDirectionDegrees,WindSpeedMPH,WindSpeedGustMPH,Humidity,HourlyPrecipIn,Conditions,Clouds,dailyrainin,SoftwareType,DateUTC
2013-02-10 00:01:00,14.2,7.0,30.04,NW,306,0.0,-999.0,74,-99.99,,,0.00,weatherlink.com 1.10,2013-02-10 05:01:00,
2013-02-10 00:16:00,14.0,7.0,30.05,WNW,302,1.0,-999.0,73,-99.99,,,0.00,weatherlink.com 1.10,2013-02-10 05:16:00,
2013-02-10 00:31:00,14.3,7.0,30.05,NW,314,1.0,-999.0,72,-99.99,,,0.00,weatherlink.com 1.10,2013-02-10 05:31:00,
2013-02-10 00:46:00,14.3,7.0,30.06,NNE,24,1.0,-999.0,71,-99.99,,,0.00,weatherlink.com 1.10,2013-02-10 05:46:00,
2013-02-10 01:01:00,14.0,7.0,30.06,NW,304,0.0,-999.0,72,-99.99,,,0.00,weatherlink.com 1.10,2013-02-10 06:01:00,
2013-02-10 01:16:00,14.0,6.0,30.07,NW,311,0.0,-999.0,71,-99.99,,,0.00,weatherlink.com 1.10,2013-02-10 06:16:00,
2013-02-10 01:31:00,13.9,6.0,30.07,North,355,0.0,-999.0,71,-99.99,,,0.00,weatherlink.com 1.10,2013-02-10 06:31:00,
2013-02-10 01:46:00,14.1,6.0,30.08,NW,309,0.0,-999.0,70,-99.99,,,0.00,weatherlink.com 1.10,2013-02-10 06:46:00,
2013-02-10 02:01:00,14.0,6.0,30.09,West,274,0.0,-999.0,71,-99.99,,,0.00,weatherlink.com 1.10,2013-02-10 07:01:00,
2013-02-10 02:16:00,14.0,6.0,30.08,WNW,300,0.0,-999.0,70,-99.99,,,0.00,weatherlink.com 1.10,2013-02-10 07:16:00,
2013-02-10 02:31:00,14.2,6.0,30.09,WNW,288,0.0,-999.0,70,-99.99,,,0.00,weatherlink.com 1.10,2013-02-10 07:31:00,
2013-02-10 02:46:00,13.9,5.0,30.09,WNW,300,0.0,-999.0,69,-99.99,,,0.00,weatherlink.com 1.10,2013-02-10 07:46:00,
2013-02-10 03:01:00,13.7,5.0,30.09,WNW,286,0.0,-999.0,69,-99.99,,,0.00,weatherlink.com 1.10,2013-02-10 08:01:00,
2013-02-10 03:16:00,13.6,5.0,30.10,WNW,296,2.0,-999.0,69,-99.99,,,0.00,weatherlink.com 1.10,2013-02-10 08:16:00,
2013-02-10 03:31:00,13.3,5.0,30.11,NNW,340,0.0,-999.0,69,-99.99,,,0.00,weatherlink.com 1.10,2013-02-10 08:31:00,
2013-02-10 03:46:00,12.8,5.0,30.11,WNW,301,0.0,-999.0,71,-99.99,,,0.00,weatherlink.com 1.10,2013-02-10 08:46:00,
2013-02-10 04:01:00,12.0,4.0,30.11,NW,309,0.0,-999.0,71,-99.99,,,0.00,weatherlink.com 1.10,2013-02-10 09:01:00,
2013-02-10 04:16:00,11.8,4.0,30.12,NW,317,0.0,-999.0,71,-99.99,,,0.00,weatherlink.com 1.10,2013-02-10 09:16:00,
2013-02-10 04:31:00,12.4,4.0,30.12,NNW,336,0.0,-999.0,69,-99.99,,,0.00,weatherlink.com 1.10,2013-02-10 09:31:00,
2013-02-10 04:46:00,12.7,4.0,30.13,NW,304,0.0,-999.0,68,-99.99,,,0.00,weatherlink.com 1.10,2013-02-10 09:46:00,
2013-02-10 05:01:00,12.1,4.0,30.14,NW,304,0.0,-999.0,69,-99.99,,,0.00,weatherlink.com 1.10,2013-02-10 10:01:00,
2013-02-10 05:16:00,11.0,3.0,30.15,NW,305,0.0,-999.0,71,-99.99,,,0.00,weatherlink.com 1.10,2013-02-10 10:16:00,
2013-02-10 05:31:00,11.0,3.0,30.16,WNW,303,0.0,-999.0,71,-99.99,,,0.00,weatherlink.com 1.10,2013-02-10 10:31:00,
2013-02-10 05:46:00,10.6,3.0,30.16,NW,304,0.0,-999.0,71,-99.99,,,0.00,weatherlink.com 1.10,2013-02-10 10:46:00,
2013-02-10 06:01:00,10.3,3.0,30.17,NW,304,0.0,-999.0,71,-99.99,,,0.00,weatherlink.com 1.10,2013-02-10 11:01:00,
2013-02-10 06:16:00,9.7,2.0,30.18,WNW,301,0.0,-999.0,71,-99.99,,,0.00,weatherlink.com 1.10,2013-02-10 11:16:00,
2013-02-10 06:31:00,9.6,2.0,30.18,WNW,301,0.0,-999.0,71,-99.99,,,0.00,weatherlink.com 1.10,2013-02-10 11:31:00,
2013-02-10 06:46:00,9.6,2.0,30.18,WNW,301,0.0,-999.0,72,-99.99,,,0.00,weatherlink.com 1.10,2013-02-10 11:46:00,
2013-02-10 07:01:00,9.3,2.0,30.20,WNW,301,0.0,-999.0,72,-99.99,,,0.00,weatherlink.com 1.10,2013-02-10 12:01:00,
2013-02-10 07:16:00,9.2,2.0,30.20,WNW,301,0.0,-999.0,72,-99.99,,,0.00,weatherlink.com 1.10,2013-02-10 12:16:00,
2013-02-10 07:31:00,9.4,2.0,30.21,WNW,301,0.0,-999.0,73,-99.99,,,0.00,weatherlink.com 1.10,2013-02-10 12:31:00,
2013-02-10 07:46:00,10.0,3.0,30.22,WNW,301,0.0,-999.0,72,-99.99,,,0.00,weatherlink.com 1.10,2013-02-10 12:46:00,
2013-02-10 08:01:00,10.2,3.0,30.23,WNW,301,0.0,-999.0,71,-99.99,,,0.00,weatherlink.com 1.10,2013-02-10 13:01:00,
2013-02-10 08:16:00,11.2,4.0,30.23,WNW,302,0.0,-999.0,72,-99.99,,,0.00,weatherlink.com 1.10,2013-02-10 13:16:00,
2013-02-10 08:31:00,12.9,5.0,30.23,NW,305,2.0,-999.0,69,-99.99,,,0.00,weatherlink.com 1.10,2013-02-10 13:31:00,
2013-02-10 08:46:00,16.0,6.0,30.23,WNW,294,1.0,-999.0,65,-99.99,,,0.00,weatherlink.com 1.10,2013-02-10 13:46:00,
2013-02-10 09:01:00,18.3,7.0,30.23,WNW,298,3.0,-999.0,62,-99.99,,,0.00,weatherlink.com 1.10,2013-02-10 14:01:00,
2013-02-10 09:16:00,19.9,7.0,30.24,NE,52,0.0,-999.0,58,-99.99,,,0.00,weatherlink.com 1.10,2013-02-10 14:16:00,
2013-02-10 09:31:00,21.4,9.0,30.24,WNW,288,1.0,-999.0,58,-99.99,,,0.00,weatherlink.com 1.10,2013-02-10 14:31:00,
2013-02-10 09:46:00,22.5,7.0,30.25,NNW,338,0.0,-999.0,52,-99.99,,,0.00,weatherlink.com 1.10,2013-02-10 14:46:00,
2013-02-10 10:01:00,23.8,8.0,30.25,NE,38,0.0,-999.0,52,-99.99,,,0.00,weatherlink.com 1.10,2013-02-10 15:01:00,
2013-02-10 10:16:00,25.1,10.0,30.25,West,263,0.0,-999.0,53,-99.99,,,0.00,weatherlink.com 1.10,2013-02-10 15:16:00,
2013-02-10 10:31:00,26.6,11.0,30.25,WNW,294,0.0,-999.0,53,-99.99,,,0.00,weatherlink.com 1.10,2013-02-10 15:31:00,
2013-02-10 10:46:00,27.2,10.0,30.25,ENE,69,0.0,-999.0,49,-99.99,,,0.00,weatherlink.com 1.10,2013-02-10 15:46:00,
2013-02-10 11:01:00,28.6,12.0,30.25,NNE,32,3.0,-999.0,49,-99.99,,,0.00,weatherlink.com 1.10,2013-02-10 16:01:00,
2013-02-10 11:16:00,29.4,11.0,30.25,WSW,237,0.0,-999.0,46,-99.99,,,0.01,weatherlink.com 1.10,2013-02-10 16:16:00,
2013-02-10 11:31:00,30.7,12.0,30.25,WNW,293,2.0,-999.0,46,-99.99,,,0.01,weatherlink.com 1.10,2013-02-10 16:31:00,
2013-02-10 11:46:00,31.7,12.0,30.25,NW,305,0.0,-999.0,45,-99.99,,,0.01,weatherlink.com 1.10,2013-02-10 16:46:00,
2013-02-10 12:01:00,32.5,13.0,30.24,NNE,21,4.0,-999.0,44,-99.99,,,0.01,weatherlink.com 1.10,2013-02-10 17:01:00,
2013-02-10 12:16:00,33.1,13.0,30.24,WSW,252,0.0,-999.0,43,-99.99,,,0.01,weatherlink.com 1.10,2013-02-10 17:16:00,
2013-02-10 12:31:00,33.9,13.0,30.24,West,263,0.0,-999.0,43,-99.99,,,0.01,weatherlink.com 1.10,2013-02-10 17:31:00,
2013-02-10 12:46:00,35.1,14.0,30.23,WNW,286,3.0,-999.0,42,-99.99,,,0.01,weatherlink.com 1.10,2013-02-10 17:46:00,
2013-02-10 13:01:00,35.2,14.0,30.23,WNW,302,0.0,-999.0,41,-99.99,,,0.02,weatherlink.com 1.10,2013-02-10 18:01:00,
2013-02-10 13:16:00,35.8,11.0,30.22,NNW,334,0.0,-999.0,36,-99.99,,,0.03,weatherlink.com 1.10,2013-02-10 18:16:00,
2013-02-10 13:31:00,36.6,13.0,30.21,NNW,342,4.0,-999.0,38,-99.99,,,0.03,weatherlink.com 1.10,2013-02-10 18:31:00,
2013-02-10 13:46:00,36.8,11.0,30.20,NNE,17,0.0,-999.0,35,-99.99,,,0.03,weatherlink.com 1.10,2013-02-10 18:46:00,
2013-02-10 14:01:00,37.6,13.0,30.20,NE,37,0.0,-999.0,37,-99.99,,,0.03,weatherlink.com 1.10,2013-02-10 19:01:00,
2013-02-10 14:16:00,38.1,11.0,30.20,NW,313,2.0,-999.0,32,-99.99,,,0.04,weatherlink.com 1.10,2013-02-10 19:16:00,
2013-02-10 14:31:00,38.2,12.0,30.20,NNW,344,0.0,-999.0,34,-99.99,,,0.04,weatherlink.com 1.10,2013-02-10 19:31:00,
2013-02-10 14:46:00,38.2,11.0,30.21,NNE,33,1.0,-999.0,33,-99.99,,,0.04,weatherlink.com 1.10,2013-02-10 19:46:00,
2013-02-10 15:01:00,38.6,12.0,30.20,WNW,303,0.0,-999.0,33,-99.99,,,0.04,weatherlink.com 1.10,2013-02-10 20:01:00,
2013-02-10 15:16:00,38.5,10.0,30.20,North,5,0.0,-999.0,31,-99.99,,,0.04,weatherlink.com 1.10,2013-02-10 20:16:00,
2013-02-10 15:31:00,38.7,10.0,30.21,WSW,237,0.0,-999.0,31,-99.99,,,0.04,weatherlink.com 1.10,2013-02-10 20:31:00,
2013-02-10 15:46:00,38.0,14.0,30.22,WSW,244,0.0,-999.0,37,-99.99,,,0.04,weatherlink.com 1.10,2013-02-10 20:46:00,
2013-02-10 16:01:00,37.7,12.0,30.22,West,265,0.0,-999.0,34,-99.99,,,0.04,weatherlink.com 1.10,2013-02-10 21:01:00,
2013-02-10 16:16:00,37.1,12.0,30.23,West,267,0.0,-999.0,35,-99.99,,,0.04,weatherlink.com 1.10,2013-02-10 21:16:00,
2013-02-10 16:31:00,35.5,11.0,30.23,WSW,250,0.0,-999.0,37,-99.99,,,0.04,weatherlink.com 1.10,2013-02-10 21:31:00,
2013-02-10 16:46:00,34.2,10.0,30.23,WSW,250,0.0,-999.0,36,-99.99,,,0.04,weatherlink.com 1.10,2013-02-10 21:46:00,
2013-02-10 17:01:00,33.0,9.0,30.23,SW,227,0.0,-999.0,36,-99.99,,,0.04,weatherlink.com 1.10,2013-02-10 22:01:00,
2013-02-10 17:16:00,32.1,8.0,30.22,SW,227,0.0,-999.0,36,-99.99,,,0.04,weatherlink.com 1.10,2013-02-10 22:16:00,
2013-02-10 17:31:00,31.2,4.0,30.22,SW,227,0.0,-999.0,32,-99.99,,,0.04,weatherlink.com 1.10,2013-02-10 22:31:00,
2013-02-10 17:46:00,30.0,5.0,30.23,SW,227,0.0,-999.0,35,-99.99,,,0.04,weatherlink.com 1.10,2013-02-10 22:46:00,
2013-02-10 18:01:00,29.9,5.0,30.24,SW,227,0.0,-999.0,34,-99.99,,,0.04,weatherlink.com 1.10,2013-02-10 23:01:00,
2013-02-10 18:16:00,29.6,4.0,30.23,SW,227,0.0,-999.0,33,-99.99,,,0.04,weatherlink.com 1.10,2013-02-10 23:16:00,
2013-02-10 18:31:00,29.2,5.0,30.23,SW,227,0.0,-999.0,35,-99.99,,,0.04,weatherlink.com 1.10,2013-02-10 23:31:00,
2013-02-10 18:46:00,27.4,6.0,30.23,SW,227,0.0,-999.0,40,-99.99,,,0.04,weatherlink.com 1.10,2013-02-10 23:46:00,
2013-02-10 19:01:00,28.3,6.0,30.23,SW,227,0.0,-999.0,38,-99.99,,,0.04,weatherlink.com 1.10,2013-02-11 00:01:00,
2013-02-10 19:16:00,27.2,5.0,30.23,SW,227,0.0,-999.0,38,-99.99,,,0.04,weatherlink.com 1.10,2013-02-11 00:16:00,
2013-02-10 19:31:00,25.7,8.0,30.23,SW,227,0.0,-999.0,48,-99.99,,,0.04,weatherlink.com 1.10,2013-02-11 00:31:00,
2013-02-10 19:46:00,25.7,5.0,30.24,SW,227,0.0,-999.0,41,-99.99,,,0.04,weatherlink.com 1.10,2013-02-11 00:46:00,
2013-02-10 20:01:00,25.7,7.0,30.23,SW,231,0.0,-999.0,46,-99.99,,,0.04,weatherlink.com 1.10,2013-02-11 01:01:00,
2013-02-10 20:16:00,26.2,5.0,30.23,SW,231,0.0,-999.0,41,-99.99,,,0.04,weatherlink.com 1.10,2013-02-11 01:16:00,
2013-02-10 20:31:00,26.3,3.0,30.23,SW,231,0.0,-999.0,37,-99.99,,,0.04,weatherlink.com 1.10,2013-02-11 01:31:00,
2013-02-10 20:46:00,25.9,4.0,30.22,SW,231,0.0,-999.0,39,-99.99,,,0.04,weatherlink.com 1.10,2013-02-11 01:46:00,
2013-02-10 21:01:00,24.3,7.0,30.23,SW,231,0.0,-999.0,48,-99.99,,,0.04,weatherlink.com 1.10,2013-02-11 02:01:00,
2013-02-10 21:16:00,23.5,5.0,30.23,SW,231,0.0,-999.0,46,-99.99,,,0.04,weatherlink.com 1.10,2013-02-11 02:16:00,
2013-02-10 21:31:00,24.1,3.0,30.23,SW,231,0.0,-999.0,41,-99.99,,,0.04,weatherlink.com 1.10,2013-02-11 02:31:00,
2013-02-10 21:46:00,23.8,7.0,30.23,SW,232,0.0,-999.0,48,-99.99,,,0.04,weatherlink.com 1.10,2013-02-11 02:46:00,
2013-02-10 22:01:00,22.0,7.0,30.22,SW,232,0.0,-999.0,52,-99.99,,,0.04,weatherlink.com 1.10,2013-02-11 03:01:00,
2013-02-10 22:16:00,21.2,7.0,30.22,SW,232,0.0,-999.0,55,-99.99,,,0.04,weatherlink.com 1.10,2013-02-11 03:16:00,
2013-02-10 22:31:00,21.5,8.0,30.22,SW,232,0.0,-999.0,55,-99.99,,,0.04,weatherlink.com 1.10,2013-02-11 03:31:00,
2013-02-10 22:46:00,19.8,9.0,30.23,SW,232,0.0,-999.0,63,-99.99,,,0.04,weatherlink.com 1.10,2013-02-11 03:46:00,
2013-02-10 23:01:00,18.2,7.0,30.22,SW,232,0.0,-999.0,63,-99.99,,,0.04,weatherlink.com 1.10,2013-02-11 04:01:00,
2013-02-10 23:16:00,18.0,7.0,30.23,SW,232,0.0,-999.0,62,-99.99,,,0.04,weatherlink.com 1.10,2013-02-11 04:16:00,
2013-02-10 23:31:00,17.9,8.0,30.23,SW,232,0.0,-999.0,66,-99.99,,,0.04,weatherlink.com 1.10,2013-02-11 04:31:00,
2013-02-10 23:46:00,18.6,6.0,30.22,SW,232,0.0,-999.0,57,-99.99,,,0.04,weatherlink.com 1.10,2013-02-11 04:46:00,